Regional Weather Roundup
Issued by NWS

Home | Current Version | Previous Version | Text Only | Print | Product List | Glossary On
Versions: 1 2 3 4 5 6 7 8 9 10 11 12 13 14 15 16 17 18 19 20 21 22 23 24 25 26 27 28 29 30 31 32 33 34 35 36 37 38 39 40 41 42 43 44 45 46 47 48 49 50
970
ASUS43 KMPX 072301
RWRMN
WEATHER ROUNDUP FOR MINNESOTA
NATIONAL WEATHER SERVICE TWIN CITIES/CHANHASSEN MN
500 PM CST SUN FEB 07 2016


NOTE: "FAIR" INDICATES FEW OR NO CLOUDS BELOW 12,000 FEET WITH NO
SIGNIFICANT WEATHER AND/OR OBSTRUCTIONS TO VISIBILITY. N/A MEANS
CURRENT SKY AND/OR WEATHER CONDITIONS ARE NOT AVAILABLE.

MNZ060>063-068>070-080000-
   Twin Cities Metro

CITY           SKY/WX    TMP DP  RH WIND       PRES   REMARKS
TWIN CITIES    CLOUDY    37  30  75 W13       29.63R
ST PAUL        CLOUDY    37  30  75 W15       29.64R
CRYSTAL        CLOUDY    35  28  75 NW31G38   29.64R WCI  22
BLAINE         LGT SNOW  34  30  86 W18G26    29.64R FOG     WCI  23
LAKEVILLE      CLOUDY    34  32  93 W14G21    29.65R WCI  24
EDEN PRAIRIE   CLOUDY    37  30  75 W14G23    29.63S
SOUTH ST PAUL  CLOUDY    37  30  75 W10       29.63R
LAKE ELMO      CLOUDY    37  32  81 W10G23    29.62S
$$
MNZ001>005-007-008-013>017-022>024-027-028-080000-
   Northwest Minnesota

CITY           SKY/WX    TMP DP  RH WIND       PRES   REMARKS
BEMIDJI        LGT SNOW  14  11  85 NW24      29.71R WCI  -5
HALLOCK        SNOW      12   9  85 NW32G44   29.90R VSB<1/4 WCI -10
ROSEAU         LGT SNOW  10   7  85 NW23      29.79R VSB 3/4 WCI -10
WARROAD        LGT SNOW  10   5  79 NW25G33   29.77R WCI -10
CROOKSTON      HVY SNOW  12  10  92 N33G45    29.90R VSB<1/4 WCI -10
FOSSTON        SNOW      10   7  85 NW23G37   29.81R VSB 1/2 WCI -10
DETROIT LAKES  LGT SNOW  16  14  93 N23G38    29.81R VSB 3/4 WCI  -2
MOORHEAD       LGT RAIN  19  14  79 N26G38    29.88R WCI   1
PARK RAPIDS    LGT SNOW  16  10  77 NW28G33   29.71R WCI  -4
MAHNOMEN       SNOW      13  10  87 NW25G32   29.80R VSB 1/2 WCI  -7
$$
MNZ006-009>011-018-025>026-080000-
   North Central Minnesota

CITY           SKY/WX    TMP DP  RH WIND       PRES   REMARKS
BAUDETTE       LGT SNOW  14   9  80 NW21G32   29.69R WCI  -4
FLAG ISLAND    LGT SNOW  12   7  79 NW28G36   29.73R VSB 1   WCI  -9
INTL FALLS     LGT SNOW  24  21  88 NW16G24   29.59R FOG     WCI  11
WASKISH        LGT SNOW  18  12  79 W16G24    29.69R WCI   3
LONGVILLE      LGT SNOW  18  14  86 NW17G23   29.66R WCI   2
GRAND RAPIDS   CLOUDY    21  18  86 NW18G25   29.59R WCI   6
CRANE LAKE     CLOUDY    28  27  93 W1        29.53R
ORR            MIX PCPN  25  21  86 NW16      29.52R WCI  12
COOK           LGT SNOW  25  25 100 W14       29.54R VSB 1   WCI  13
WALKER         LGT SNOW  16  11  82 NW20G28   29.67R WCI  -1
$$
MNZ012-019>021-037-080000-
   Northeast Minnesota

CITY           SKY/WX    TMP DP  RH WIND       PRES   REMARKS
DULUTH         LGT SNOW  30  26  85 NW16G22   29.50R FOG     WCI  19
ELY            LGT SNOW  32  30  93 NW6       29.47R VSB 3/4 WCI  26
HIBBING        FLURRIES  25  22  88 NW16      29.54R WCI  12
EVELETH        LGT SNOW  30  27  86 NW15G24   29.53R WCI  19
DULUTH HARBOR  CLOUDY    32  30  93 W18       29.54R WCI  20
TWO HARBORS    FLURRIES  36  30  80 W10G17    29.47R
SILVER BAY     FLURRIES  36  34  93 CALM      29.46R
GRAND MARAIS     N/A     32  29  88 NE9       29.51R WCI  24
G MARAIS ARPRT LGT SNOW  25  21  86 NE13      29.47R WCI  13
$$
MNZ029>031-032-039>041-046>048-054>057-064-080000-
   West Central Minnesota

CITY           SKY/WX    TMP DP  RH WIND       PRES   REMARKS
FERGUS FALLS   LGT SNOW  21  16  79 N22G40    29.85R WCI   5
WHEATON        MIX PCPN  27  19  74 NW30G41   29.86R WCI  10
MORRIS         CLOUDY    27  19  74 NW31G40   29.79R WCI  10
ALEXANDRIA     FLURRIES  22  13  68 NW32G43   29.75R WCI   3
ELBOW LAKE     LGT SNOW  22  19  87 NW29G37   29.79R WCI   4
WADENA         LGT SNOW  16  10  79 NW30G41   29.74R WCI  -4
GLENWOOD       CLOUDY    25  18  74 NW25G37   29.76R WCI   9
APPLETON       LGT SNOW  28  23  80 NW29G35   29.82R WCI  13
BENSON         FLURRIES  27  21  80 N26G35    29.79R WCI  11
ORTONVILLE     CLOUDY    27  18  69 NW24G43   29.84R WCI  12
MADISON        CLOUDY    30  23  74 NW28G38   29.83R WCI  16
WILLMAR        LGT SNOW  28  25  86 NW31G39   29.78R WCI  12
$$
MNZ033>034-036-042>043-049>051-058-059-080000-
   Central Minnesota

CITY           SKY/WX    TMP DP  RH WIND       PRES   REMARKS
ST CLOUD       LGT SNOW  28  21  75 NW23G31   29.68R WCI  14
SAUK CENTRE    FAIR      24  16  72 NW33      29.73R WCI   6
PAYNESVILLE    CLOUDY    28  20  75 NW21G35   29.74R WCI  14
AITKIN         LGT SNOW  27  18  69 NW12G21   29.62R WCI  16
PINE RIVER     LGT SNOW  18  14  86 NW17G25   29.71R WCI   2
BRAINERD       LGT SNOW  21  17  84 NW24G33   29.67R VSB 3/4 WCI   4
STAPLES        LGT SNOW  18  12  79 NW32G40   29.71R WCI  -3
LONG PRAIRIE   CLOUDY    23  18  80 W24G32    29.71R HAZE    WCI   7
LITTLE FALLS   LGT SNOW  23  19  86 W21G28    29.71R WCI   8
LITCHFIELD     LGT SNOW  30  27  86 NW21G33   29.72R WCI  17
BUFFALO        CLOUDY    32  25  76 NW14G20   29.68R WCI  22
MAPLE LAKE     CLOUDY    32  26  77 NW20G31   29.69R HAZE    WCI  20
$$
MNZ037-044-045-052-053-080000-
   East Central Minnesota

CITY           SKY/WX    TMP DP  RH WIND       PRES   REMARKS
PRINCETON      LGT SNOW  30  25  80 W17G36    29.66R WCI  18
MORA           LGT SNOW  28  25  86 NW16G26   29.64R WCI  17
CAMBRIDGE      LGT SNOW  32  25  74 W20G29    29.62R WCI  20
RUSH CITY      DRIZZLE   31  27  83 W20G33    29.61R WCI  19
MOOSE LAKE     LGT SNOW  30  25  80 NW15      29.56R WCI  19
HINCKLEY       LGT SNOW  30  28  93 NW12G23   29.60R WCI  21
CLOQUET        FLURRIES  28  25  86 W14G24    29.53R WCI  17
MCGREGOR       CLOUDY    27  21  80 NW18      29.60R WCI  13
$$
MNZ071>073-080-081-089-090-097-098-080000-
   Southwest Minnesota

CITY           SKY/WX    TMP DP  RH WIND       PRES   REMARKS
MONTEVIDEO     CLOUDY    30  25  80 N26G35    29.82R WCI  16
GRANITE FALLS  CLOUDY    32  26  77 NW32G40   29.81R WCI  17
CANBY          LGT SNOW  32  28  82 W20G30    29.84R WCI  21
MARSHALL       FLURRIES  30  25  81 N29G39    29.80R WCI  15
REDWOOD FALLS  CLOUDY    32  26  78 NW24G33   29.77R WCI  19
OLIVIA         FLURRIES  32  28  86 N28G36    29.76R WCI  18
PIPESTONE      MIX PCPN  32  19  59 N30G43    29.83R WCI  18
WINDOM         MIX PCPN  32  28  86 NW29G36   29.76R WCI  18
WORTHINGTON    CLOUDY    30  25  80 NW28      29.81R WCI  16
JACKSON        LGT SNOW  32  28  86 NW23G35   29.77R WCI  19
TRACY          LGT SNOW  32  28  86 NW24G32   29.80R WCI  18
SLAYTON        LGT SNOW  29  29  99 NW31G38   29.80R WCI  14
$$
MNZ065>067-074>077-082>085-091>093-080000-
   South Central Minnesota

CITY           SKY/WX    TMP DP  RH WIND       PRES   REMARKS
MANKATO        CLOUDY    36  28  75 NW22G30   29.70R
NEW ULM        CLOUDY    34  28  80 NW28G36   29.72R WCI  20
ST JAMES       FLURRIES  34  30  86 W25G31    29.75R WCI  21
FAIRMONT       CLOUDY    36  28  75 NW23G29   29.74R
GLENCOE        CLOUDY    35  31  86 NW24G30   29.68R WCI  23
FARIBAULT      CLOUDY    34  32  93 W15       29.67S FOG     WCI  24
OWATONNA       CLOUDY    34  30  86 W17       29.68S FOG     WCI  23
WASECA         CLOUDY    34  32  93 W16       29.71R FOG     WCI  23
ALBERT LEA     LGT SNOW  36  30  80 W13G21    29.70S
$$
MNZ078>079-086>088-094>096-080000-
   Southeast Minnesota

CITY           SKY/WX    TMP DP  RH WIND       PRES   REMARKS
ROCHESTER      CLOUDY    34  28  79 W21       29.66S WCI  22
RED WING       CLOUDY    37  28  70 W15       29.63R
STANTON        CLOUDY    37  31  82 W12       29.65R
DODGE CENTER   CLOUDY    34  30  86 W16       29.67R WCI  23
WINONA         CLOUDY    37  28  70 W7G20     29.66S
PRESTON        CLOUDY    34  28  77 W16       29.68S WCI  24
$$
ABBREVIATIONS USED IN REMARKS
   TC - TEMPERATURES IN CELSIUS
  WCI - WIND CHILL INDEX
   HX - HEAT INDEX
  VSB - VISIBILITY
$$




USA.gov is the U.S. government's official web portal to all federal, state and local government web resources and services.